Regional Weather Roundup
Issued by NWS State College, PA

Home | Current Version | Previous Version | Graphics & Text | Print | Product List | Glossary Off
Versions: 1 2 3 4 5 6 7 8 9 10 11 12 13 14 15 16 17 18 19 20 21 22 23 24 25 26 27 28 29 30 31 32 33 34 35 36 37 38 39 40 41 42 43 44 45 46 47 48 49 50

000
ASUS41 KCTP 171903
RWRCTP

REGIONAL WEATHER ROUNDUP
NATIONAL WEATHER SERVICE STATE COLLEGE PA
200 PM EST TUE JAN 17 2017

Note: "fair" indicates few or no clouds below 12,000 feet with no
significant weather and/or obstructions to visibility.

* = STATION THAT DOES NOT REPORT PRECIPITATION /E.G. RAIN...SNOW...ETC/
    THUNDER OR FOG.

PAZ002>004-007>009-013>016-020>023-029>032-172000-
WESTERN PENNSYLVANIA

CITY           SKY/WX    TMP DP  RH WIND       PRES   REMARKS
ERIE           CLOUDY    56  51  84 W10G21    29.77R
MEADVILLE      CLOUDY    54  51  90 SW10G20   29.78F
FRANKLIN*        N/A     54  52  94 SW12      29.81F
NEW CASTLE     CLOUDY    58  54  86 SW7       29.81F
BEAVER COUNTY  CLOUDY    57  54  88 SW9       29.81F
BUTLER*        CLOUDY    57  54  88 SW9G17    29.85F
PITTSBURGH INT PTSUNNY   62  54  74 SW18      29.82F
PITTSBURGH     PTSUNNY   59  52  77 S8        29.85F
INDIANA*       CLOUDY    59  55  88 W10G25    29.87F
LATROBE        CLOUDY    59  55  88 SW17G29   29.87F
WASHINGTON CO* NOT AVBL
$$

PAZ004>006-010>012-017>019-024>028-033>037-041-042-045-046-049>053-172000-
CENTRAL PENNSYLVANIA

CITY           SKY/WX    TMP DP  RH WIND       PRES   REMARKS
BRADFORD       FOG       42  42 100 SE3       29.82F VSB 1/4
DUBOIS         FOG       43  41  93 E7        29.84F VSB<1/4
CLEARFIELD     FOG       38  38 100 N8        29.88F VSB 1/4
JOHNSTOWN      CLOUDY    54  53  97 SW12      29.87F
ALTOONA        LGT RAIN  38  37  97 CALM      29.93F VSB 1/2
STATE COLLEGE  LGT RAIN  36  36 100 CALM      29.93F VSB 1
WILLIAMSPORT   CLOUDY    38  34  85 E10       29.98F FOG
SELINSGROVE    CLOUDY    36  35  96 CALM      30.02F FOG
FT INDIANTOWN  CLOUDY    37  37 100 E6        30.03F FOG
CAPITAL CITY   CLOUDY    41  36  82 E7        30.03F HAZE
HARRISBURG     CLOUDY    40  39  97 SE5       30.03F FOG
YORK           CLOUDY    41  41 100 CALM      30.02F FOG
$$

PAZ038>040-043-044-047-048-054-055-060>062-067>071-172000-
EASTERN PENNSYLVANIA

CITY           SKY/WX    TMP DP  RH WIND       PRES   REMARKS
SCRANTON       LGT RAIN  39  37  92 E5        30.00F FOG
MOUNT POCONO   FRZ RAIN  31  30  96 E7        30.00F VSB<1/4
ALLENTOWN      CLOUDY    38  33  82 E9        30.07F HAZE
QUAKERTOWN*    CLOUDY    39  36  87 SE6       30.07F
READING        CLOUDY    42  35  76 SE8       30.05F
LANCASTER      LGT RAIN  42  41  96 SE6       30.05S FOG
COATESVILLE    CLOUDY    41  39  93 SE5       30.06F FOG
POTTSTOWN      CLOUDY    40  36  86 VRB6      30.08F FOG
BLUE BELL      CLOUDY    41  37  87 SE3       30.08S
DOYLESTOWN     CLOUDY    42  37  82 CALM      30.07F
WILLOW GROVE   NOT AVBL
NORTH PHILA    CLOUDY    44  39  82 E9        30.10F
PHILADELPHIA   CLOUDY    44  40  85 SE5       30.10F FOG
$$




USA.gov is the U.S. government's official web portal to all federal, state and local government web resources and services.